Regional Weather Roundup
Issued by NWS State College, PA

Home | Current Version | Previous Version | Graphics & Text | Print | Product List | Glossary Off
Versions: 1 2 3 4 5 6 7 8 9 10 11 12 13 14 15 16 17 18 19 20 21 22 23 24 25 26 27 28 29 30 31 32 33 34 35 36 37 38 39 40 41 42 43 44 45 46 47 48 49 50

878
ASUS41 KCTP 251910
RWRCTP

REGIONAL WEATHER ROUNDUP
NATIONAL WEATHER SERVICE STATE COLLEGE PA
200 PM EST SAT FEB 25 2017

Note: "fair" indicates few or no clouds below 12,000 feet with no
significant weather and/or obstructions to visibility.

* = STATION THAT DOES NOT REPORT PRECIPITATION /E.G. RAIN...SNOW...ETC/
    THUNDER OR FOG.

PAZ002>004-007>009-013>016-020>023-029>032-252000-
WESTERN PENNSYLVANIA

CITY           SKY/WX    TMP DP  RH WIND       PRES   REMARKS
ERIE           FLURRIES  37  30  75 W20G35    29.64R
MEADVILLE      CLOUDY    41  29  62 W22G35    29.60R
FRANKLIN*      CLOUDY    45  28  53 W17G25    29.59S
NEW CASTLE     CLOUDY    44  32  62 SW16G26   29.65R
BEAVER COUNTY  NOT AVBL
BUTLER*        MOSUNNY   48  30  49 W18G29    29.61F
PITTSBURGH INT PTSUNNY   49  31  49 W22G31    29.62S
PITTSBURGH     CLOUDY    50  29  44 W20G36    29.61F
INDIANA*       CLOUDY    46  41  81 W13G20    29.61F
LATROBE        PTSUNNY   46  41  81 W17       29.62F
WASHINGTON CO* PTSUNNY   48  28  46 W20G29    29.66S
$$

PAZ004>006-010>012-017>019-024>028-033>037-041-042-045-046-049>053-252000-
CENTRAL PENNSYLVANIA

CITY           SKY/WX    TMP DP  RH WIND       PRES   REMARKS
BRADFORD       LGT RAIN  42  37  82 W12G20    29.53R
DUBOIS         CLOUDY    43  36  76 W15       29.56F
CLEARFIELD       N/A    N/A N/A N/A MISG      29.54F
JOHNSTOWN      LGT RAIN  41  39  93 W10G21    29.57S
ALTOONA        RAIN      46  44  93 W15G22    29.58R FOG
STATE COLLEGE  LGT RAIN  46  41  81 W14       29.55R
WILLIAMSPORT   HVY RAIN  54  49  83 W26G48    29.47R
SELINSGROVE    CLOUDY    62  57  83 VRB3      29.45F
FT INDIANTOWN  CLOUDY    63  63 100 CALM      29.41F
CAPITAL CITY   CLOUDY    73  56  54 S14       29.40F
HARRISBURG     TSTM      61  57  87 S8        29.41F FOG
YORK           TSTM      69  58  67 S9G18     29.41F
$$

PAZ038>040-043-044-047-048-054-055-060>062-067>071-252000-
EASTERN PENNSYLVANIA

CITY           SKY/WX    TMP DP  RH WIND       PRES   REMARKS
SCRANTON       CLOUDY    66  57  72 S8G22     29.43F
MOUNT POCONO   LGT RAIN  60  56  86 S15G25    29.50F
ALLENTOWN      PTSUNNY   71  55  56 S22G28    29.48F
QUAKERTOWN*    CLOUDY    68  57  68 S12G22    29.51F
READING        CLOUDY    73  58  59 S18G32    29.42F
LANCASTER      MOSUNNY   72  59  63 S26G33    29.43F
COATESVILLE    PTCLDY    72  57  60 S15G26    29.50F
POTTSTOWN      CLOUDY    70  56  61 S10G22    29.51F
BLUE BELL      CLOUDY    70  55  60 S9G16     29.52F
DOYLESTOWN     PTSUNNY   71  56  58 S17G29    29.52F
WILLOW GROVE   NOT AVBL
NORTH PHILA    CLOUDY    73  54  51 S8G18     29.55F
PHILADELPHIA   PTSUNNY   72  56  57 S15       29.53F
$$




USA.gov is the U.S. government's official web portal to all federal, state and local government web resources and services.